Flag for U.S.A. Weather past 2 weeks in Daytona Beach, Florida, U.S.A.

Now
92 °F

Scattered clouds.


Feels Like: 103 °F
Forecast: 75 / 92 °F
Wind: 9 mph from East

Location: Daytona Beach Regional Airport

Current Time: Aug 22, 2014 at 4:40:27 PM

Latest Report: Aug 22, 2014 at 3:53 PM


Visibility: 10 mi

Pressure: 30.02 "Hg

Humidity: 58%

Dew point: 75 °F

Location of Daytona BeachLocation

Historic Weather in Daytona Beach — Graph

°F

Daytona Beach temperature yesterday

Maximum temperature yesterday: 93 °F (at 3:53 PM)
Minimum temperature yesterday: 76 °F (at 11:53 PM)
Average temperature yesterday: 84 °F

Past Weeks' High & Low Weather Summary

 TemperatureHumidityPressure
High95 °F (Aug 20, 3:53 PM)100% (Aug 11, 10:53 PM)30.14 "Hg (Aug 11, 10:53 PM)
Low72 °F (Aug 16, 5:53 AM)44% (Aug 20, 3:53 PM)29.93 "Hg (Aug 12, 4:53 PM)
Average81 °F82%30.02 "Hg
* Reported Aug 7 2:53 PM — Aug 22 2:53 PM, Daytona Beach, Weather by CustomWeather, © 2014

Note: Actual official high and low records may vary slightly from our data, if they occured in-between our weather recording intervals... More about our weather records

Advertising

Daytona Beach weather history for previous 24 hours

 ConditionsComfort  
Time TempWeatherWind HumidityBarometerVisibility
2:53 PM
Aug 22
93 °FScattered clouds.8 mph58%30.03 "Hg10 mi
1:53 PM94 °FScattered clouds.12 mph58%30.05 "Hg10 mi
12:53 PM92 °FScattered clouds.No wind54%30.06 "Hg10 mi
11:53 AM91 °FScattered clouds.6 mph57%30.07 "Hg10 mi
10:53 AM89 °FScattered clouds.3 mph61%30.09 "Hg10 mi
9:53 AM85 °FScattered clouds.No wind68%30.09 "Hg10 mi
8:53 AM82 °FPassing clouds.3 mph70%30.08 "Hg10 mi
7:53 AM76 °FPassing clouds.No wind91%30.08 "Hg10 mi
6:53 AM74 °FPassing clouds.No wind94%30.07 "Hg7 mi
5:53 AM75 °FPassing clouds.No wind90%30.06 "Hg10 mi
4:53 AM75 °FPassing clouds.No wind88%30.06 "Hg10 mi
3:53 AM75 °FPassing clouds.No wind88%30.06 "Hg10 mi
2:53 AM74 °FClear.5 mph91%30.07 "Hg10 mi
1:53 AM75 °FClear.No wind90%30.07 "Hg10 mi
12:53 AM75 °FPassing clouds.No wind90%30.09 "Hg10 mi
11:53 PM
Aug 21
76 °FPassing clouds.8 mph85%30.11 "Hg10 mi
10:53 PM77 °FPassing clouds.No wind79%30.10 "Hg10 mi
9:53 PM78 °FPassing clouds.No wind76%30.10 "Hg10 mi
8:53 PM79 °FBroken clouds.5 mph74%30.11 "Hg10 mi
7:53 PM80 °FThunderstorms. Broken clouds.9 mph67%30.10 "Hg10 mi
6:53 PM86 °FThunderstorms. Scattered clouds.5 mph70%30.06 "Hg10 mi
6:45 PM87 °FThunderstorms. Scattered clouds.3 mph67%30.08 "Hg10 mi
5:53 PM90 °FPassing clouds.8 mph61%30.04 "Hg10 mi
4:53 PM91 °FPassing clouds.8 mph60%30.04 "Hg9 mi
Weather by CustomWeather, © 2014

See weather overviewHow to use our weather pages